Time,TemperatureF,DewpointF,PressureIn,WindDirection,WindDirectionDegrees,WindSpeedMPH,WindSpeedGustMPH,Humidity,HourlyPrecipIn,Conditions,Clouds,dailyrainin,SoftwareType,DateUTC
2013-07-22 00:04:00,79.6,77.4,30.09,ESE,112,1.0,1.0,93,0.00,,,0.00,Wunderground v.1.15,2013-07-22 04:04:00,
2013-07-22 00:09:00,79.5,77.3,30.09,ESE,110,1.0,1.0,93,0.00,,,0.00,Wunderground v.1.15,2013-07-22 04:09:00,
2013-07-22 00:14:00,79.4,77.5,30.09,ESE,105,0.0,1.0,94,0.00,,,0.00,Wunderground v.1.15,2013-07-22 04:14:00,
2013-07-22 00:19:00,79.3,77.4,30.09,ESE,105,0.0,0.0,94,0.00,,,0.00,Wunderground v.1.15,2013-07-22 04:19:00,
2013-07-22 00:24:00,79.2,77.3,30.09,NW,321,0.0,0.0,94,0.00,,,0.00,Wunderground v.1.15,2013-07-22 04:24:00,
2013-07-22 00:28:00,79.2,77.3,30.09,East,94,0.0,1.0,94,0.00,,,0.00,Wunderground v.1.15,2013-07-22 04:28:00,
2013-07-22 00:33:00,79.2,77.3,30.09,ESE,105,0.0,1.0,94,0.00,,,0.00,Wunderground v.1.15,2013-07-22 04:33:00,
2013-07-22 00:38:00,79.2,77.3,30.09,ENE,74,0.0,0.0,94,0.00,,,0.00,Wunderground v.1.15,2013-07-22 04:38:00,
2013-07-22 00:43:00,79.1,77.2,30.09,ENE,73,0.0,0.0,94,0.00,,,0.00,Wunderground v.1.15,2013-07-22 04:43:00,
2013-07-22 00:49:00,79.0,77.1,30.09,ENE,74,0.0,0.0,94,0.00,,,0.00,Wunderground v.1.15,2013-07-22 04:49:00,
2013-07-22 00:54:00,78.9,77.0,30.09,ENE,73,0.0,0.0,94,0.00,,,0.00,Wunderground v.1.15,2013-07-22 04:54:00,
2013-07-22 00:59:00,78.9,77.3,30.09,ENE,74,0.0,0.0,95,0.00,,,0.00,Wunderground v.1.15,2013-07-22 04:59:00,
2013-07-22 01:04:00,78.9,77.3,30.08,ENE,74,0.0,0.0,95,0.00,,,0.00,Wunderground v.1.15,2013-07-22 05:04:00,
2013-07-22 01:09:00,78.8,77.2,30.08,ENE,74,0.0,0.0,95,0.00,,,0.00,Wunderground v.1.15,2013-07-22 05:09:00,
2013-07-22 01:14:00,78.7,77.1,30.08,ENE,73,0.0,0.0,95,0.00,,,0.00,Wunderground v.1.15,2013-07-22 05:14:00,
2013-07-22 01:19:00,78.7,77.1,30.08,ENE,73,0.0,0.0,95,0.00,,,0.00,Wunderground v.1.15,2013-07-22 05:19:00,
2013-07-22 01:24:00,78.6,77.0,30.08,East,96,0.0,0.0,95,0.00,,,0.00,Wunderground v.1.15,2013-07-22 05:24:00,
2013-07-22 01:29:00,78.6,77.0,30.08,East,96,0.0,0.0,95,0.00,,,0.00,Wunderground v.1.15,2013-07-22 05:29:00,
2013-07-22 01:38:00,78.4,77.2,30.08,East,96,0.0,0.0,96,0.00,,,0.00,Wunderground v.1.15,2013-07-22 05:38:00,
2013-07-22 01:43:00,78.3,77.1,30.08,East,96,0.0,0.0,96,0.00,,,0.00,Wunderground v.1.15,2013-07-22 05:43:00,
2013-07-22 01:49:00,78.2,77.0,30.08,East,96,0.0,0.0,96,0.00,,,0.00,Wunderground v.1.15,2013-07-22 05:49:00,
2013-07-22 01:53:00,78.2,77.0,30.08,East,98,0.0,0.0,96,0.00,,,0.00,Wunderground v.1.15,2013-07-22 05:53:00,
2013-07-22 01:58:00,78.1,76.9,30.08,East,98,0.0,0.0,96,0.00,,,0.00,Wunderground v.1.15,2013-07-22 05:58:00,
2013-07-22 02:04:00,78.0,76.8,30.07,East,98,0.0,0.0,96,0.00,,,0.00,Wunderground v.1.15,2013-07-22 06:04:00,
2013-07-22 02:14:00,77.9,77.0,30.07,East,99,0.0,0.0,97,0.00,,,0.00,Wunderground v.1.15,2013-07-22 06:14:00,
2013-07-22 02:18:00,77.8,76.9,30.07,East,99,0.0,0.0,97,0.00,,,0.00,Wunderground v.1.15,2013-07-22 06:18:00,
2013-07-22 02:23:00,77.7,76.8,30.06,East,98,0.0,0.0,97,0.00,,,0.00,Wunderground v.1.15,2013-07-22 06:23:00,
2013-07-22 02:29:00,77.7,76.8,30.06,East,98,0.0,0.0,97,0.00,,,0.00,Wunderground v.1.15,2013-07-22 06:29:00,
2013-07-22 02:33:00,77.7,76.8,30.06,East,98,0.0,0.0,97,0.00,,,0.00,Wunderground v.1.15,2013-07-22 06:33:00,
2013-07-22 02:38:00,77.6,76.7,30.06,East,99,0.0,0.0,97,0.00,,,0.00,Wunderground v.1.15,2013-07-22 06:38:00,
2013-07-22 02:43:00,77.5,76.6,30.06,East,98,0.0,0.0,97,0.00,,,0.00,Wunderground v.1.15,2013-07-22 06:43:00,
2013-07-22 02:49:00,77.5,76.6,30.06,East,98,0.0,0.0,97,0.00,,,0.00,Wunderground v.1.15,2013-07-22 06:49:00,
2013-07-22 02:54:00,77.5,76.6,30.05,ENE,71,0.0,0.0,97,0.00,,,0.00,Wunderground v.1.15,2013-07-22 06:54:00,
2013-07-22 02:58:00,77.4,76.5,30.05,ENE,78,0.0,0.0,97,0.00,,,0.00,Wunderground v.1.15,2013-07-22 06:58:00,
2013-07-22 03:04:00,77.3,76.4,30.05,ENE,75,0.0,0.0,97,0.00,,,0.00,Wunderground v.1.15,2013-07-22 07:04:00,
2013-07-22 03:09:00,77.3,76.4,30.05,NE,48,0.0,0.0,97,0.00,,,0.00,Wunderground v.1.15,2013-07-22 07:09:00,
2013-07-22 03:14:00,77.2,76.3,30.05,NE,50,0.0,0.0,97,0.00,,,0.00,Wunderground v.1.15,2013-07-22 07:14:00,
2013-07-22 03:19:00,77.1,76.2,30.05,NE,50,0.0,0.0,97,0.00,,,0.00,Wunderground v.1.15,2013-07-22 07:19:00,
2013-07-22 03:28:00,77.0,76.4,30.04,East,97,0.0,0.0,98,0.00,,,0.00,Wunderground v.1.15,2013-07-22 07:28:00,
2013-07-22 03:33:00,77.0,76.4,30.04,East,98,0.0,0.0,98,0.00,,,0.00,Wunderground v.1.15,2013-07-22 07:33:00,
2013-07-22 03:38:00,77.0,76.1,30.04,East,83,0.0,2.0,97,0.00,,,0.00,Wunderground v.1.15,2013-07-22 07:38:00,
2013-07-22 03:43:00,77.0,76.1,30.04,East,98,1.0,2.0,97,0.00,,,0.00,Wunderground v.1.15,2013-07-22 07:43:00,
2013-07-22 03:49:00,77.0,76.1,30.04,ESE,106,1.0,1.0,97,0.00,,,0.00,Wunderground v.1.15,2013-07-22 07:49:00,
2013-07-22 03:54:00,77.0,76.1,30.03,East,100,0.0,1.0,97,0.00,,,0.00,Wunderground v.1.15,2013-07-22 07:54:00,
2013-07-22 03:59:00,76.9,76.0,30.03,ENE,78,0.0,1.0,97,0.00,,,0.00,Wunderground v.1.15,2013-07-22 07:59:00,
2013-07-22 04:04:00,76.9,76.0,30.03,East,98,0.0,1.0,97,0.00,,,0.00,Wunderground v.1.15,2013-07-22 08:04:00,
2013-07-22 04:09:00,76.8,75.9,30.03,East,92,1.0,1.0,97,0.00,,,0.00,Wunderground v.1.15,2013-07-22 08:09:00,
2013-07-22 04:14:00,76.8,75.9,30.03,East,95,1.0,1.0,97,0.00,,,0.00,Wunderground v.1.15,2013-07-22 08:14:00,
2013-07-22 04:19:00,76.7,75.8,30.03,East,95,0.0,0.0,97,0.00,,,0.00,Wunderground v.1.15,2013-07-22 08:19:00,
2013-07-22 04:24:00,76.7,75.8,30.03,East,94,0.0,0.0,97,0.00,,,0.00,Wunderground v.1.15,2013-07-22 08:24:00,
2013-07-22 04:29:00,76.6,75.7,30.03,East,93,0.0,0.0,97,0.00,,,0.00,Wunderground v.1.15,2013-07-22 08:29:00,
2013-07-22 04:33:00,76.5,75.6,30.03,ESE,110,0.0,0.0,97,0.00,,,0.00,Wunderground v.1.15,2013-07-22 08:33:00,
2013-07-22 04:38:00,76.5,75.6,30.03,East,97,0.0,0.0,97,0.00,,,0.00,Wunderground v.1.15,2013-07-22 08:38:00,
2013-07-22 04:43:00,76.4,75.5,30.03,East,97,0.0,0.0,97,0.00,,,0.00,Wunderground v.1.15,2013-07-22 08:43:00,
2013-07-22 04:49:00,76.4,75.5,30.03,East,97,0.0,0.0,97,0.00,,,0.00,Wunderground v.1.15,2013-07-22 08:49:00,
2013-07-22 04:54:00,76.3,75.7,30.03,East,98,0.0,0.0,98,0.00,,,0.00,Wunderground v.1.15,2013-07-22 08:54:00,
2013-07-22 04:59:00,76.2,75.6,30.03,East,97,0.0,1.0,98,0.00,,,0.00,Wunderground v.1.15,2013-07-22 08:59:00,
2013-07-22 05:04:00,76.2,75.6,30.03,East,98,0.0,1.0,98,0.00,,,0.00,Wunderground v.1.15,2013-07-22 09:04:00,
2013-07-22 05:09:00,76.2,75.6,30.03,East,80,0.0,0.0,98,0.00,,,0.00,Wunderground v.1.15,2013-07-22 09:09:00,
2013-07-22 05:14:00,76.2,75.6,30.03,East,82,0.0,2.0,98,0.00,,,0.00,Wunderground v.1.15,2013-07-22 09:14:00,
2013-07-22 05:19:00,76.1,75.5,30.03,East,96,0.0,0.0,98,0.00,,,0.00,Wunderground v.1.15,2013-07-22 09:19:00,
2013-07-22 05:24:00,76.1,75.5,30.03,ESE,105,1.0,1.0,98,0.00,,,0.00,Wunderground v.1.15,2013-07-22 09:24:00,
2013-07-22 05:29:00,76.1,75.5,30.03,ESE,120,0.0,0.0,98,0.00,,,0.00,Wunderground v.1.15,2013-07-22 09:29:00,
2013-07-22 05:33:00,76.1,75.5,30.03,East,92,0.0,0.0,98,0.00,,,0.00,Wunderground v.1.15,2013-07-22 09:33:00,
2013-07-22 05:38:00,76.1,75.5,30.04,East,93,0.0,1.0,98,0.00,,,0.00,Wunderground v.1.15,2013-07-22 09:38:00,
2013-07-22 05:43:00,76.1,75.5,30.04,East,84,0.0,1.0,98,0.00,,,0.00,Wunderground v.1.15,2013-07-22 09:43:00,
2013-07-22 05:49:00,76.1,75.5,30.04,East,84,0.0,2.0,98,0.00,,,0.00,Wunderground v.1.15,2013-07-22 09:49:00,
2013-07-22 05:54:00,76.1,75.5,30.04,East,86,1.0,2.0,98,0.00,,,0.00,Wunderground v.1.15,2013-07-22 09:54:00,
2013-07-22 05:59:00,76.1,75.5,30.04,East,80,1.0,1.0,98,0.00,,,0.00,Wunderground v.1.15,2013-07-22 09:59:00,
2013-07-22 06:04:00,76.0,75.4,30.04,East,89,0.0,1.0,98,0.00,,,0.00,Wunderground v.1.15,2013-07-22 10:04:00,
2013-07-22 06:09:00,75.9,75.3,30.05,East,89,0.0,0.0,98,0.00,,,0.00,Wunderground v.1.15,2013-07-22 10:09:00,
2013-07-22 06:14:00,75.9,75.3,30.05,East,96,0.0,0.0,98,0.00,,,0.00,Wunderground v.1.15,2013-07-22 10:14:00,
2013-07-22 06:18:00,75.9,75.3,30.05,ESE,106,0.0,0.0,98,0.00,,,0.00,Wunderground v.1.15,2013-07-22 10:18:00,
2013-07-22 06:24:00,75.8,75.2,30.05,ESE,103,0.0,0.0,98,0.00,,,0.00,Wunderground v.1.15,2013-07-22 10:24:00,
2013-07-22 06:29:00,75.9,75.3,30.05,East,101,0.0,0.0,98,0.00,,,0.00,Wunderground v.1.15,2013-07-22 10:29:00,
2013-07-22 06:33:00,75.8,75.2,30.05,ESE,102,0.0,0.0,98,0.00,,,0.00,Wunderground v.1.15,2013-07-22 10:33:00,
2013-07-22 06:38:00,75.8,75.2,30.05,East,91,0.0,0.0,98,0.00,,,0.00,Wunderground v.1.15,2013-07-22 10:38:00,
2013-07-22 06:43:00,75.8,75.2,30.05,East,93,0.0,0.0,98,0.00,,,0.00,Wunderground v.1.15,2013-07-22 10:43:00,
2013-07-22 06:49:00,75.8,75.2,30.05,East,93,0.0,0.0,98,0.00,,,0.00,Wunderground v.1.15,2013-07-22 10:49:00,
2013-07-22 06:54:00,75.7,75.1,30.05,East,89,0.0,0.0,98,0.00,,,0.00,Wunderground v.1.15,2013-07-22 10:54:00,
2013-07-22 06:59:00,75.7,75.1,30.05,East,89,0.0,0.0,98,0.00,,,0.00,Wunderground v.1.15,2013-07-22 10:59:00,
2013-07-22 07:04:00,75.7,75.1,30.05,East,98,0.0,0.0,98,0.00,,,0.00,Wunderground v.1.15,2013-07-22 11:04:00,
2013-07-22 07:14:00,75.7,75.1,30.06,East,96,0.0,0.0,98,0.00,,,0.00,Wunderground v.1.15,2013-07-22 11:14:00,
2013-07-22 07:18:00,75.8,75.2,30.06,East,89,0.0,0.0,98,0.00,,,0.00,Wunderground v.1.15,2013-07-22 11:18:00,
2013-07-22 07:23:00,75.8,75.2,30.06,ESE,113,0.0,0.0,98,0.00,,,0.00,Wunderground v.1.15,2013-07-22 11:23:00,
2013-07-22 07:28:00,75.9,75.3,30.06,East,84,0.0,1.0,98,0.00,,,0.00,Wunderground v.1.15,2013-07-22 11:28:00,
2013-07-22 07:33:00,76.0,75.4,30.06,East,82,0.0,1.0,98,0.00,,,0.00,Wunderground v.1.15,2013-07-22 11:33:00,
2013-07-22 07:38:00,76.1,75.5,30.06,East,79,1.0,1.0,98,0.00,,,0.00,Wunderground v.1.15,2013-07-22 11:38:00,
2013-07-22 07:43:00,76.3,75.7,30.07,ESE,105,1.0,1.0,98,0.00,,,0.00,Wunderground v.1.15,2013-07-22 11:43:00,
2013-07-22 07:49:00,76.5,75.9,30.07,East,84,1.0,1.0,98,0.00,,,0.00,Wunderground v.1.15,2013-07-22 11:49:00,
2013-07-22 07:54:00,76.6,76.0,30.07,ENE,77,1.0,1.0,98,0.00,,,0.00,Wunderground v.1.15,2013-07-22 11:54:00,
2013-07-22 07:59:00,76.8,76.2,30.07,East,85,1.0,1.0,98,0.00,,,0.00,Wunderground v.1.15,2013-07-22 11:59:00,
2013-07-22 08:04:00,77.1,76.2,30.07,East,93,1.0,3.0,97,0.00,,,0.00,Wunderground v.1.15,2013-07-22 12:04:00,
2013-07-22 08:09:00,77.3,76.4,30.07,East,92,1.0,2.0,97,0.00,,,0.00,Wunderground v.1.15,2013-07-22 12:09:00,
2013-07-22 08:14:00,77.6,76.7,30.07,ESE,108,1.0,2.0,97,0.00,,,0.00,Wunderground v.1.15,2013-07-22 12:14:00,
2013-07-22 08:19:00,77.8,76.6,30.08,East,87,1.0,1.0,96,0.00,,,0.00,Wunderground v.1.15,2013-07-22 12:19:00,
2013-07-22 08:24:00,78.2,77.0,30.08,East,96,1.0,2.0,96,0.00,,,0.00,Wunderground v.1.15,2013-07-22 12:24:00,
2013-07-22 08:29:00,78.6,77.0,30.08,ENE,58,1.0,1.0,95,0.00,,,0.00,Wunderground v.1.15,2013-07-22 12:29:00,
2013-07-22 08:38:00,79.3,77.4,30.08,East,81,1.0,4.0,94,0.00,,,0.00,Wunderground v.1.15,2013-07-22 12:38:00,
2013-07-22 08:43:00,79.7,77.5,30.08,ENE,62,2.0,4.0,93,0.00,,,0.00,Wunderground v.1.15,2013-07-22 12:43:00,
2013-07-22 08:49:00,80.1,77.9,30.09,NE,36,1.0,2.0,93,0.00,,,0.00,Wunderground v.1.15,2013-07-22 12:49:00,
2013-07-22 08:54:00,80.5,78.0,30.09,ENE,63,1.0,2.0,92,0.00,,,0.00,Wunderground v.1.15,2013-07-22 12:54:00,
2013-07-22 08:59:00,80.8,77.9,30.09,East,86,2.0,3.0,91,0.00,,,0.00,Wunderground v.1.15,2013-07-22 12:59:00,
2013-07-22 09:04:00,81.2,78.0,30.09,ESE,103,2.0,3.0,90,0.00,,,0.00,Wunderground v.1.15,2013-07-22 13:04:00,
2013-07-22 09:09:00,81.5,78.3,30.09,East,88,2.0,2.0,90,0.00,,,0.00,Wunderground v.1.15,2013-07-22 13:09:00,
2013-07-22 09:14:00,81.8,78.2,30.09,ESE,116,3.0,3.0,89,0.00,,,0.00,Wunderground v.1.15,2013-07-22 13:14:00,
2013-07-22 09:19:00,82.1,78.2,30.09,ESE,105,3.0,3.0,88,0.00,,,0.00,Wunderground v.1.15,2013-07-22 13:19:00,
2013-07-22 09:24:00,82.6,78.3,30.09,East,98,2.0,3.0,87,0.00,,,0.00,Wunderground v.1.15,2013-07-22 13:24:00,
2013-07-22 09:29:00,83.2,78.9,30.09,East,82,2.0,2.0,87,0.00,,,0.00,Wunderground v.1.15,2013-07-22 13:29:00,
2013-07-22 09:38:00,83.9,78.5,30.09,SE,128,2.0,2.0,84,0.00,,,0.00,Wunderground v.1.15,2013-07-22 13:38:00,
2013-07-22 09:43:00,84.1,78.4,30.09,ENE,75,2.0,2.0,83,0.00,,,0.00,Wunderground v.1.15,2013-07-22 13:43:00,
2013-07-22 09:48:00,84.4,78.7,30.09,East,91,3.0,3.0,83,0.00,,,0.00,Wunderground v.1.15,2013-07-22 13:48:00,
2013-07-22 09:53:00,85.2,79.1,30.09,SE,128,2.0,3.0,82,0.00,,,0.00,Wunderground v.1.15,2013-07-22 13:53:00,
2013-07-22 09:58:00,85.5,78.6,30.09,East,91,1.0,5.0,80,0.00,,,0.00,Wunderground v.1.15,2013-07-22 13:58:00,
2013-07-22 10:04:00,85.4,78.1,30.09,ESE,120,3.0,5.0,79,0.00,,,0.00,Wunderground v.1.15,2013-07-22 14:04:00,
2013-07-22 10:09:00,85.4,78.1,30.09,East,95,3.0,4.0,79,0.00,,,0.00,Wunderground v.1.15,2013-07-22 14:09:00,
2013-07-22 10:14:00,85.4,77.4,30.09,NE,49,3.0,4.0,77,0.00,,,0.00,Wunderground v.1.15,2013-07-22 14:14:00,
2013-07-22 10:18:00,85.8,77.4,30.09,SE,125,3.0,4.0,76,0.00,,,0.00,Wunderground v.1.15,2013-07-22 14:18:00,
2013-07-22 10:24:00,86.1,77.6,30.09,ENE,58,3.0,4.0,76,0.00,,,0.00,Wunderground v.1.15,2013-07-22 14:24:00,
2013-07-22 10:29:00,86.4,77.9,30.09,East,96,3.0,3.0,76,0.00,,,0.00,Wunderground v.1.15,2013-07-22 14:29:00,
2013-07-22 10:38:00,87.1,77.8,30.09,ENE,69,2.0,2.0,74,0.00,,,0.00,Wunderground v.1.15,2013-07-22 14:38:00,
2013-07-22 10:43:00,86.8,76.7,30.09,ESE,117,3.0,6.0,72,0.00,,,0.00,Wunderground v.1.15,2013-07-22 14:43:00,
2013-07-22 10:49:00,86.9,77.6,30.09,East,79,4.0,4.0,74,0.00,,,0.00,Wunderground v.1.15,2013-07-22 14:49:00,
2013-07-22 10:53:00,87.4,78.5,30.09,ESE,106,3.0,4.0,75,0.00,,,0.00,Wunderground v.1.15,2013-07-22 14:53:00,
2013-07-22 10:58:00,88.3,78.5,30.09,East,101,2.0,2.0,73,0.00,,,0.00,Wunderground v.1.15,2013-07-22 14:58:00,
2013-07-22 11:04:00,88.9,78.3,30.09,East,99,2.0,2.0,71,0.00,,,0.00,Wunderground v.1.15,2013-07-22 15:04:00,
2013-07-22 11:09:00,89.0,78.4,30.09,East,95,2.0,2.0,71,0.00,,,0.00,Wunderground v.1.15,2013-07-22 15:09:00,
2013-07-22 11:14:00,88.7,77.2,30.09,ESE,106,2.0,4.0,69,0.00,,,0.00,Wunderground v.1.15,2013-07-22 15:14:00,
2013-07-22 11:19:00,88.1,76.6,30.09,East,80,3.0,3.0,69,0.00,,,0.00,Wunderground v.1.15,2013-07-22 15:19:00,
2013-07-22 11:24:00,88.1,77.1,30.09,ESE,110,3.0,3.0,70,0.00,,,0.00,Wunderground v.1.15,2013-07-22 15:24:00,
2013-07-22 11:29:00,88.7,77.7,30.09,East,98,2.0,2.0,70,0.00,,,0.00,Wunderground v.1.15,2013-07-22 15:29:00,
2013-07-22 11:33:00,89.0,77.5,30.09,ESE,112,2.0,4.0,69,0.00,,,0.00,Wunderground v.1.15,2013-07-22 15:33:00,
2013-07-22 11:38:00,89.2,77.7,30.09,ESE,102,2.0,3.0,69,0.00,,,0.00,Wunderground v.1.15,2013-07-22 15:38:00,
2013-07-22 11:43:00,89.6,77.6,30.08,ESE,122,2.0,3.0,68,0.00,,,0.00,Wunderground v.1.15,2013-07-22 15:43:00,
2013-07-22 11:48:00,89.6,76.7,30.08,ESE,107,2.0,3.0,66,0.00,,,0.00,Wunderground v.1.15,2013-07-22 15:48:00,
2013-07-22 11:54:00,89.3,77.3,30.08,East,84,3.0,4.0,68,0.00,,,0.00,Wunderground v.1.15,2013-07-22 15:54:00,
2013-07-22 11:58:00,89.2,77.3,30.08,ENE,75,2.0,2.0,68,0.00,,,0.00,Wunderground v.1.15,2013-07-22 15:58:00,
2013-07-22 12:04:00,89.7,77.3,30.08,East,84,2.0,2.0,67,0.00,,,0.00,Wunderground v.1.15,2013-07-22 16:04:00,
2013-07-22 12:14:00,91.6,77.7,30.08,East,88,1.0,2.0,64,0.00,,,0.00,Wunderground v.1.15,2013-07-22 16:14:00,
2013-07-22 12:19:00,91.7,77.3,30.09,NE,51,1.0,1.0,63,0.00,,,0.00,Wunderground v.1.15,2013-07-22 16:19:00,
2013-07-22 12:24:00,91.7,77.3,30.09,ESE,105,2.0,2.0,63,0.00,,,0.00,Wunderground v.1.15,2013-07-22 16:24:00,
2013-07-22 12:29:00,91.6,76.7,30.09,ESE,120,2.0,2.0,62,0.00,,,0.00,Wunderground v.1.15,2013-07-22 16:29:00,
2013-07-22 12:33:00,92.2,77.8,30.09,East,80,2.0,2.0,63,0.00,,,0.00,Wunderground v.1.15,2013-07-22 16:33:00,
2013-07-22 12:38:00,91.6,76.7,30.09,ENE,67,2.0,3.0,62,0.00,,,0.00,Wunderground v.1.15,2013-07-22 16:38:00,
2013-07-22 12:43:00,90.9,76.6,30.08,SE,127,3.0,3.0,63,0.00,,,0.00,Wunderground v.1.15,2013-07-22 16:43:00,
2013-07-22 12:48:00,91.0,77.6,30.08,East,89,1.0,1.0,65,0.00,,,0.00,Wunderground v.1.15,2013-07-22 16:48:00,
2013-07-22 12:53:00,90.8,76.9,30.08,East,92,1.0,2.0,64,0.00,,,0.00,Wunderground v.1.15,2013-07-22 16:53:00,
2013-07-22 12:58:00,91.3,76.9,30.08,East,93,2.0,2.0,63,0.00,,,0.00,Wunderground v.1.15,2013-07-22 16:58:00,
2013-07-22 13:04:00,91.4,76.1,30.08,East,84,3.0,3.0,61,0.00,,,0.00,Wunderground v.1.15,2013-07-22 17:04:00,
2013-07-22 13:09:00,91.6,77.7,30.08,East,82,2.0,2.0,64,0.00,,,0.00,Wunderground v.1.15,2013-07-22 17:09:00,
2013-07-22 13:14:00,92.7,78.3,30.08,SE,141,1.0,3.0,63,0.00,,,0.00,Wunderground v.1.15,2013-07-22 17:14:00,
2013-07-22 13:19:00,92.5,77.6,30.10,ENE,74,2.0,3.0,62,0.00,,,0.00,Wunderground v.1.15,2013-07-22 17:19:00,
2013-07-22 13:24:00,88.7,75.0,30.11,North,359,4.0,9.0,64,0.00,,,0.00,Wunderground v.1.15,2013-07-22 17:24:00,
2013-07-22 13:29:00,82.6,74.7,30.13,East,79,6.0,10.0,77,2.82,,,0.19,Wunderground v.1.15,2013-07-22 17:29:00,
2013-07-22 13:33:00,78.3,74.1,30.13,ENE,71,7.0,10.0,87,1.57,,,0.29,Wunderground v.1.15,2013-07-22 17:33:00,
2013-07-22 13:38:00,76.5,73.7,30.14,ESE,109,6.0,6.0,91,0.81,,,0.37,Wunderground v.1.15,2013-07-22 17:38:00,
2013-07-22 13:43:00,76.0,74.1,30.13,East,85,3.0,6.0,94,0.40,,,0.42,Wunderground v.1.15,2013-07-22 17:43:00,
2013-07-22 13:48:00,75.7,74.2,30.13,East,98,1.0,1.0,95,0.58,,,0.45,Wunderground v.1.15,2013-07-22 17:48:00,
2013-07-22 13:53:00,75.7,74.5,30.13,ENE,75,1.0,3.0,96,0.21,,,0.47,Wunderground v.1.15,2013-07-22 17:53:00,
2013-07-22 13:58:00,75.5,74.3,30.12,ESE,106,2.0,2.0,96,0.14,,,0.48,Wunderground v.1.15,2013-07-22 17:58:00,
2013-07-22 14:04:00,75.6,74.7,30.12,East,92,2.0,2.0,97,0.09,,,0.49,Wunderground v.1.15,2013-07-22 18:04:00,
2013-07-22 14:14:00,75.8,74.9,30.12,East,81,1.0,1.0,97,0.05,,,0.50,Wunderground v.1.15,2013-07-22 18:14:00,
2013-07-22 14:19:00,75.8,74.9,30.12,East,94,1.0,2.0,97,0.05,,,0.50,Wunderground v.1.15,2013-07-22 18:19:00,
2013-07-22 14:29:00,75.8,74.9,30.12,East,96,2.0,2.0,97,0.04,,,0.50,Wunderground v.1.15,2013-07-22 18:29:00,
2013-07-22 14:33:00,75.6,74.4,30.12,ENE,78,2.0,2.0,96,0.04,,,0.51,Wunderground v.1.15,2013-07-22 18:33:00,
2013-07-22 14:38:00,75.6,74.7,30.12,East,96,2.0,2.0,97,0.17,,,0.53,Wunderground v.1.15,2013-07-22 18:38:00,
2013-07-22 14:43:00,75.5,74.6,30.11,East,91,2.0,2.0,97,0.18,,,0.54,Wunderground v.1.15,2013-07-22 18:43:00,
2013-07-22 14:48:00,75.6,74.7,30.11,NE,34,1.0,2.0,97,0.25,,,0.56,Wunderground v.1.15,2013-07-22 18:48:00,
2013-07-22 14:54:00,75.5,74.6,30.11,East,81,1.0,2.0,97,0.25,,,0.58,Wunderground v.1.15,2013-07-22 18:54:00,
2013-07-22 14:59:00,75.5,74.6,30.10,East,95,1.0,1.0,97,0.18,,,0.60,Wunderground v.1.15,2013-07-22 18:59:00,
2013-07-22 15:04:00,75.5,74.9,30.10,East,93,1.0,6.0,98,0.16,,,0.61,Wunderground v.1.15,2013-07-22 19:04:00,
2013-07-22 15:09:00,75.5,74.9,30.10,East,81,1.0,2.0,98,0.11,,,0.62,Wunderground v.1.15,2013-07-22 19:09:00,
2013-07-22 15:14:00,75.5,74.9,30.10,East,99,1.0,2.0,98,0.09,,,0.62,Wunderground v.1.15,2013-07-22 19:14:00,
2013-07-22 15:19:00,75.7,75.1,30.10,East,97,1.0,1.0,98,0.08,,,0.63,Wunderground v.1.15,2013-07-22 19:19:00,
2013-07-22 15:24:00,75.8,75.2,30.10,ENE,58,0.0,1.0,98,0.06,,,0.63,Wunderground v.1.15,2013-07-22 19:24:00,
2013-07-22 15:29:00,75.8,75.2,30.10,East,101,0.0,0.0,98,0.05,,,0.64,Wunderground v.1.15,2013-07-22 19:29:00,
2013-07-22 15:33:00,75.9,75.3,30.09,East,98,0.0,0.0,98,0.05,,,0.64,Wunderground v.1.15,2013-07-22 19:33:00,
2013-07-22 15:39:00,75.9,75.3,30.09,East,101,0.0,1.0,98,0.05,,,0.64,Wunderground v.1.15,2013-07-22 19:39:00,
2013-07-22 15:44:00,75.9,75.3,30.08,East,93,0.0,1.0,98,0.04,,,0.65,Wunderground v.1.15,2013-07-22 19:44:00,
2013-07-22 15:48:00,76.0,75.4,30.08,ESE,110,0.0,0.0,98,0.04,,,0.65,Wunderground v.1.15,2013-07-22 19:48:00,
2013-07-22 15:54:00,76.1,75.5,30.08,ENE,70,0.0,1.0,98,0.04,,,0.65,Wunderground v.1.15,2013-07-22 19:54:00,
2013-07-22 15:58:00,76.0,75.4,30.08,ENE,71,0.0,1.0,98,0.00,,,0.65,Wunderground v.1.15,2013-07-22 19:58:00,
2013-07-22 16:04:00,76.0,75.4,30.08,ENE,70,0.0,1.0,98,0.00,,,0.65,Wunderground v.1.15,2013-07-22 20:04:00,
2013-07-22 16:09:00,75.9,75.3,30.08,WNW,287,0.0,1.0,98,0.00,,,0.65,Wunderground v.1.15,2013-07-22 20:09:00,
2013-07-22 16:13:00,75.9,75.3,30.08,NNW,344,0.0,1.0,98,0.00,,,0.65,Wunderground v.1.15,2013-07-22 20:13:00,
2013-07-22 16:19:00,75.9,75.3,30.07,East,84,0.0,0.0,98,0.00,,,0.65,Wunderground v.1.15,2013-07-22 20:19:00,
2013-07-22 16:24:00,75.8,75.2,30.07,ESE,105,0.0,0.0,98,0.00,,,0.65,Wunderground v.1.15,2013-07-22 20:24:00,
2013-07-22 16:29:00,75.8,75.2,30.07,ESE,103,0.0,0.0,98,0.00,,,0.65,Wunderground v.1.15,2013-07-22 20:29:00,
2013-07-22 16:33:00,75.9,75.3,30.06,East,97,0.0,0.0,98,0.00,,,0.65,Wunderground v.1.15,2013-07-22 20:33:00,
2013-07-22 16:38:00,76.0,75.4,30.06,East,98,0.0,0.0,98,0.00,,,0.65,Wunderground v.1.15,2013-07-22 20:38:00,
2013-07-22 16:43:00,76.1,75.5,30.06,East,97,0.0,0.0,98,0.00,,,0.65,Wunderground v.1.15,2013-07-22 20:43:00,
2013-07-22 16:48:00,76.2,75.9,30.06,East,98,0.0,0.0,99,0.00,,,0.65,Wunderground v.1.15,2013-07-22 20:48:00,
2013-07-22 16:53:00,76.2,75.6,30.05,East,97,0.0,0.0,98,0.00,,,0.65,Wunderground v.1.15,2013-07-22 20:53:00,
2013-07-22 16:58:00,76.4,76.1,30.05,East,85,0.0,0.0,99,0.00,,,0.65,Wunderground v.1.15,2013-07-22 20:58:00,
2013-07-22 17:04:00,76.6,76.0,30.05,East,85,0.0,0.0,98,0.00,,,0.65,Wunderground v.1.15,2013-07-22 21:04:00,
2013-07-22 17:09:00,76.6,76.0,30.05,East,85,0.0,0.0,98,0.00,,,0.65,Wunderground v.1.15,2013-07-22 21:09:00,
2013-07-22 17:14:00,76.8,76.5,30.05,East,83,0.0,0.0,99,0.00,,,0.65,Wunderground v.1.15,2013-07-22 21:14:00,
2013-07-22 17:19:00,76.9,76.6,30.05,NE,37,0.0,0.0,99,0.00,,,0.65,Wunderground v.1.15,2013-07-22 21:19:00,
2013-07-22 17:24:00,76.8,76.2,30.05,ESE,104,0.0,0.0,98,0.00,,,0.65,Wunderground v.1.15,2013-07-22 21:24:00,
2013-07-22 17:29:00,76.8,76.2,30.05,ESE,105,1.0,1.0,98,0.00,,,0.65,Wunderground v.1.15,2013-07-22 21:29:00,
2013-07-22 17:34:00,76.7,76.1,30.05,East,101,1.0,1.0,98,0.00,,,0.65,Wunderground v.1.15,2013-07-22 21:34:00,
2013-07-22 17:39:00,76.8,76.2,30.05,East,99,1.0,1.0,98,0.00,,,0.65,Wunderground v.1.15,2013-07-22 21:39:00,
2013-07-22 17:44:00,77.0,76.4,30.05,NE,51,0.0,1.0,98,0.00,,,0.65,Wunderground v.1.15,2013-07-22 21:44:00,
2013-07-22 17:48:00,77.1,76.5,30.05,East,99,0.0,1.0,98,0.00,,,0.65,Wunderground v.1.15,2013-07-22 21:48:00,
2013-07-22 17:53:00,77.1,76.5,30.05,East,92,0.0,1.0,98,0.00,,,0.65,Wunderground v.1.15,2013-07-22 21:53:00,
2013-07-22 17:58:00,77.1,76.2,30.05,East,98,1.0,1.0,97,0.00,,,0.65,Wunderground v.1.15,2013-07-22 21:58:00,
2013-07-22 18:04:00,77.2,76.6,30.05,ESE,103,1.0,1.0,98,0.00,,,0.65,Wunderground v.1.15,2013-07-22 22:04:00,
2013-07-22 18:08:00,77.4,76.8,30.05,East,82,1.0,1.0,98,0.00,,,0.65,Wunderground v.1.15,2013-07-22 22:08:00,
2013-07-22 18:13:00,77.4,76.8,30.05,East,97,0.0,1.0,98,0.00,,,0.65,Wunderground v.1.15,2013-07-22 22:13:00,
2013-07-22 18:19:00,77.5,76.6,30.05,East,85,1.0,1.0,97,0.00,,,0.65,Wunderground v.1.15,2013-07-22 22:19:00,
2013-07-22 18:24:00,77.6,76.7,30.05,East,88,1.0,1.0,97,0.00,,,0.65,Wunderground v.1.15,2013-07-22 22:24:00,
2013-07-22 18:29:00,77.8,76.9,30.05,East,85,0.0,0.0,97,0.00,,,0.65,Wunderground v.1.15,2013-07-22 22:29:00,
2013-07-22 18:34:00,77.7,76.8,30.05,East,91,1.0,1.0,97,0.00,,,0.65,Wunderground v.1.15,2013-07-22 22:34:00,
2013-07-22 18:39:00,77.8,76.9,30.05,East,97,1.0,1.0,97,0.00,,,0.65,Wunderground v.1.15,2013-07-22 22:39:00,
2013-07-22 18:44:00,78.0,77.1,30.05,East,97,0.0,1.0,97,0.00,,,0.65,Wunderground v.1.15,2013-07-22 22:44:00,
2013-07-22 18:48:00,78.1,77.2,30.05,East,97,0.0,0.0,97,0.00,,,0.65,Wunderground v.1.15,2013-07-22 22:48:00,
2013-07-22 18:53:00,78.3,77.4,30.05,East,97,0.0,0.0,97,0.00,,,0.65,Wunderground v.1.15,2013-07-22 22:53:00,
2013-07-22 18:58:00,78.4,77.2,30.04,ENE,65,0.0,0.0,96,0.00,,,0.65,Wunderground v.1.15,2013-07-22 22:58:00,
2013-07-22 19:04:00,78.5,77.3,30.04,ENE,77,0.0,0.0,96,0.00,,,0.65,Wunderground v.1.15,2013-07-22 23:04:00,
2013-07-22 19:08:00,78.6,77.4,30.04,WNW,300,0.0,0.0,96,0.00,,,0.65,Wunderground v.1.15,2013-07-22 23:08:00,
2013-07-22 19:13:00,78.8,77.6,30.04,NW,304,0.0,0.0,96,0.00,,,0.65,Wunderground v.1.15,2013-07-22 23:13:00,
2013-07-22 19:19:00,79.0,77.4,30.04,East,84,0.0,0.0,95,0.00,,,0.65,Wunderground v.1.15,2013-07-22 23:19:00,
2013-07-22 19:24:00,79.3,77.7,30.04,ENE,70,1.0,1.0,95,0.00,,,0.65,Wunderground v.1.15,2013-07-22 23:24:00,
2013-07-22 19:29:00,79.4,77.8,30.04,East,93,1.0,1.0,95,0.00,,,0.65,Wunderground v.1.15,2013-07-22 23:29:00,
2013-07-22 19:34:00,79.5,77.6,30.04,ENE,75,1.0,2.0,94,0.00,,,0.65,Wunderground v.1.15,2013-07-22 23:34:00,
2013-07-22 19:38:00,79.5,77.6,30.04,ESE,103,1.0,1.0,94,0.00,,,0.65,Wunderground v.1.15,2013-07-22 23:38:00,
2013-07-22 19:43:00,79.5,77.3,30.04,ESE,105,1.0,1.0,93,0.00,,,0.65,Wunderground v.1.15,2013-07-22 23:43:00,
2013-07-22 19:49:00,79.4,77.2,30.04,East,89,1.0,1.0,93,0.00,,,0.65,Wunderground v.1.15,2013-07-22 23:49:00,
2013-07-22 19:54:00,79.2,77.0,30.04,East,79,1.0,1.0,93,0.00,,,0.65,Wunderground v.1.15,2013-07-22 23:54:00,
2013-07-22 19:59:00,79.0,76.8,30.04,ESE,108,0.0,0.0,93,0.00,,,0.65,Wunderground v.1.15,2013-07-22 23:59:00,
2013-07-22 20:04:00,78.9,76.7,30.03,East,79,0.0,0.0,93,0.00,,,0.65,Wunderground v.1.15,2013-07-23 00:04:00,
2013-07-22 20:09:00,78.7,76.8,30.04,East,79,0.0,0.0,94,0.00,,,0.65,Wunderground v.1.15,2013-07-23 00:09:00,
2013-07-22 20:14:00,78.5,76.6,30.04,East,79,0.0,0.0,94,0.00,,,0.65,Wunderground v.1.15,2013-07-23 00:14:00,
2013-07-22 20:19:00,78.3,76.4,30.04,East,79,0.0,0.0,94,0.00,,,0.65,Wunderground v.1.15,2013-07-23 00:19:00,
2013-07-22 20:24:00,78.1,76.6,30.04,East,79,0.0,0.0,95,0.00,,,0.65,Wunderground v.1.15,2013-07-23 00:24:00,
2013-07-22 20:29:00,78.0,76.5,30.04,East,79,0.0,0.0,95,0.00,,,0.65,Wunderground v.1.15,2013-07-23 00:29:00,
2013-07-22 20:33:00,77.9,76.4,30.04,East,79,0.0,0.0,95,0.00,,,0.65,Wunderground v.1.15,2013-07-23 00:33:00,
2013-07-22 20:38:00,77.8,76.3,30.04,East,79,0.0,0.0,95,0.00,,,0.65,Wunderground v.1.15,2013-07-23 00:38:00,
2013-07-22 20:43:00,77.7,76.5,30.04,East,79,0.0,0.0,96,0.00,,,0.65,Wunderground v.1.15,2013-07-23 00:43:00,
2013-07-22 20:48:00,77.6,76.4,30.05,East,79,0.0,0.0,96,0.00,,,0.65,Wunderground v.1.15,2013-07-23 00:48:00,
2013-07-22 20:53:00,77.5,76.3,30.05,East,79,0.0,0.0,96,0.00,,,0.65,Wunderground v.1.15,2013-07-23 00:53:00,
2013-07-22 20:58:00,77.4,76.2,30.05,East,79,0.0,0.0,96,0.00,,,0.65,Wunderground v.1.15,2013-07-23 00:58:00,
2013-07-22 21:04:00,77.2,76.0,30.05,East,79,0.0,0.0,96,0.00,,,0.65,Wunderground v.1.15,2013-07-23 01:04:00,
2013-07-22 21:09:00,77.2,76.3,30.05,East,79,0.0,0.0,97,0.00,,,0.65,Wunderground v.1.15,2013-07-23 01:09:00,
2013-07-22 21:14:00,77.1,76.2,30.05,East,79,0.0,0.0,97,0.00,,,0.65,Wunderground v.1.15,2013-07-23 01:14:00,
2013-07-22 21:18:00,77.0,76.1,30.05,East,79,0.0,0.0,97,0.00,,,0.65,Wunderground v.1.15,2013-07-23 01:18:00,
2013-07-22 21:24:00,76.9,76.0,30.05,ENE,74,0.0,0.0,97,0.00,,,0.65,Wunderground v.1.15,2013-07-23 01:24:00,
2013-07-22 21:29:00,76.8,75.9,30.05,ENE,76,0.0,0.0,97,0.00,,,0.65,Wunderground v.1.15,2013-07-23 01:29:00,
2013-07-22 21:33:00,76.8,75.9,30.05,ENE,76,0.0,0.0,97,0.00,,,0.65,Wunderground v.1.15,2013-07-23 01:33:00,
2013-07-22 21:38:00,76.7,75.8,30.05,East,81,0.0,0.0,97,0.00,,,0.65,Wunderground v.1.15,2013-07-23 01:38:00,
2013-07-22 21:43:00,76.6,75.7,30.06,East,80,0.0,0.0,97,0.00,,,0.65,Wunderground v.1.15,2013-07-23 01:43:00,
2013-07-22 21:48:00,76.5,75.6,30.06,East,82,0.0,0.0,97,0.00,,,0.65,Wunderground v.1.15,2013-07-23 01:48:00,
2013-07-22 21:53:00,76.4,75.5,30.06,East,81,0.0,0.0,97,0.00,,,0.65,Wunderground v.1.15,2013-07-23 01:53:00,
2013-07-22 21:58:00,76.3,75.4,30.06,East,81,0.0,0.0,97,0.00,,,0.65,Wunderground v.1.15,2013-07-23 01:58:00,
2013-07-22 22:04:00,76.2,75.3,30.06,East,87,0.0,0.0,97,0.00,,,0.65,Wunderground v.1.15,2013-07-23 02:04:00,
2013-07-22 22:09:00,76.2,75.3,30.06,ENE,65,0.0,0.0,97,0.00,,,0.65,Wunderground v.1.15,2013-07-23 02:09:00,
2013-07-22 22:14:00,76.1,75.2,30.06,ENE,68,0.0,0.0,97,0.00,,,0.65,Wunderground v.1.15,2013-07-23 02:14:00,
2013-07-22 22:19:00,76.0,75.1,30.06,ENE,68,0.0,0.0,97,0.00,,,0.65,Wunderground v.1.15,2013-07-23 02:19:00,
2013-07-22 22:24:00,75.9,75.0,30.06,ENE,68,0.0,0.0,97,0.00,,,0.65,Wunderground v.1.15,2013-07-23 02:24:00,
2013-07-22 22:29:00,75.8,74.9,30.06,ENE,68,0.0,0.0,97,0.00,,,0.65,Wunderground v.1.15,2013-07-23 02:29:00,
2013-07-22 22:38:00,75.7,74.8,30.06,East,86,0.0,0.0,97,0.00,,,0.65,Wunderground v.1.15,2013-07-23 02:38:00,
2013-07-22 22:43:00,75.7,74.8,30.06,East,91,0.0,0.0,97,0.00,,,0.65,Wunderground v.1.15,2013-07-23 02:43:00,
2013-07-22 22:49:00,75.7,74.8,30.06,East,91,0.0,0.0,97,0.00,,,0.65,Wunderground v.1.15,2013-07-23 02:49:00,
2013-07-22 22:53:00,75.6,74.7,30.06,East,90,0.0,0.0,97,0.00,,,0.65,Wunderground v.1.15,2013-07-23 02:53:00,
2013-07-22 22:58:00,75.7,74.8,30.06,East,92,0.0,0.0,97,0.00,,,0.65,Wunderground v.1.15,2013-07-23 02:58:00,
2013-07-22 23:04:00,75.6,74.7,30.06,East,91,0.0,0.0,97,0.00,,,0.65,Wunderground v.1.15,2013-07-23 03:04:00,
2013-07-22 23:09:00,75.6,74.7,30.05,East,82,0.0,0.0,97,0.00,,,0.65,Wunderground v.1.15,2013-07-23 03:09:00,
2013-07-22 23:14:00,75.5,74.6,30.05,East,84,0.0,0.0,97,0.00,,,0.65,Wunderground v.1.15,2013-07-23 03:14:00,
2013-07-22 23:19:00,75.5,74.6,30.05,ENE,75,0.0,0.0,97,0.00,,,0.65,Wunderground v.1.15,2013-07-23 03:19:00,
2013-07-22 23:24:00,75.5,74.6,30.05,ENE,75,0.0,0.0,97,0.00,,,0.65,Wunderground v.1.15,2013-07-23 03:24:00,
2013-07-22 23:29:00,75.5,74.6,30.05,ENE,68,0.0,0.0,97,0.00,,,0.65,Wunderground v.1.15,2013-07-23 03:29:00,
2013-07-22 23:33:00,75.6,74.7,30.05,East,86,0.0,0.0,97,0.00,,,0.65,Wunderground v.1.15,2013-07-23 03:33:00,
2013-07-22 23:38:00,75.6,74.7,30.05,East,88,0.0,0.0,97,0.00,,,0.65,Wunderground v.1.15,2013-07-23 03:38:00,
2013-07-22 23:43:00,75.7,74.8,30.05,East,84,0.0,0.0,97,0.00,,,0.65,Wunderground v.1.15,2013-07-23 03:43:00,
2013-07-22 23:48:00,75.7,74.8,30.05,East,86,0.0,0.0,97,0.00,,,0.65,Wunderground v.1.15,2013-07-23 03:48:00,
2013-07-22 23:53:00,75.8,74.9,30.04,West,276,0.0,0.0,97,0.00,,,0.65,Wunderground v.1.15,2013-07-23 03:53:00,
2013-07-22 23:58:00,75.8,74.9,30.04,West,277,0.0,0.0,97,0.00,,,0.00,Wunderground v.1.15,2013-07-23 03:58:00,